TimeMST,TemperatureF,Dew PointF,Humidity,Sea Level PressureIn,VisibilityMPH,Wind Direction,Wind SpeedMPH,Gust SpeedMPH,PrecipitationIn,Events,Conditions,WindDirDegrees,DateUTC
12:56 AM,64.0,30.9,29,29.96,10.0,Calm,Calm,-,N/A,,Clear,0,2012-10-09 07:56:00
1:56 AM,63.0,32.0,31,29.95,10.0,Variable,3.5,-,N/A,,Clear,0,2012-10-09 08:56:00
2:56 AM,61.0,30.9,32,29.94,10.0,Variable,3.5,-,N/A,,Clear,0,2012-10-09 09:56:00
3:56 AM,61.0,30.0,31,29.94,10.0,SW,3.5,-,N/A,,Clear,220,2012-10-09 10:56:00
4:56 AM,59.0,30.0,33,29.95,10.0,Calm,Calm,-,N/A,,Clear,0,2012-10-09 11:56:00
5:55 AM,57.2,30.2,36,29.98,10.0,Variable,6.9,-,N/A,,Partly Cloudy,0,2012-10-09 12:55:00
6:55 AM,60.8,30.2,31,29.99,10.0,Variable,4.6,-,N/A,,Partly Cloudy,0,2012-10-09 13:55:00
7:56 AM,66.2,32.0,28,29.99,10.0,Variable,4.6,-,N/A,,Partly Cloudy,0,2012-10-09 14:56:00
8:55 AM,69.8,33.8,27,29.99,10.0,Variable,3.5,-,N/A,,Clear,0,2012-10-09 15:55:00
9:55 AM,73.4,30.2,20,29.98,10.0,Variable,6.9,-,N/A,,Clear,0,2012-10-09 16:55:00
10:55 AM,75.2,30.2,19,29.98,10.0,Variable,4.6,-,N/A,,Clear,0,2012-10-09 17:55:00
11:55 AM,78.8,30.2,17,29.98,10.0,Variable,3.5,-,N/A,,Clear,0,2012-10-09 18:55:00
12:55 PM,80.6,30.2,16,29.94,10.0,Variable,5.8,-,N/A,,Clear,0,2012-10-09 19:55:00
1:55 PM,80.6,30.2,16,29.91,10.0,Variable,4.6,-,N/A,,Clear,0,2012-10-09 20:55:00
2:55 PM,82.4,30.2,15,29.89,10.0,Variable,4.6,-,N/A,,Partly Cloudy,0,2012-10-09 21:55:00
3:55 PM,82.4,30.2,15,29.87,10.0,West,11.5,-,N/A,,Partly Cloudy,270,2012-10-09 22:55:00
4:55 PM,80.6,28.4,15,29.88,10.0,West,11.5,-,N/A,,Clear,280,2012-10-09 23:55:00
5:55 PM,75.2,30.2,19,29.91,10.0,West,10.4,-,N/A,,Clear,260,2012-10-10 00:55:00
6:55 PM,73.4,28.4,19,29.94,10.0,West,11.5,-,N/A,,Clear,260,2012-10-10 01:55:00
7:55 PM,71.6,35.6,27,29.94,10.0,SW,12.7,-,N/A,,Clear,230,2012-10-10 02:55:00
8:55 PM,68.0,35.6,30,29.95,10.0,WNW,5.8,-,N/A,,Clear,300,2012-10-10 03:55:00
9:55 PM,64.4,33.8,32,29.97,10.0,Calm,Calm,-,N/A,,Clear,0,2012-10-10 04:55:00
10:55 PM,64.4,30.2,28,29.97,10.0,Calm,Calm,-,N/A,,Clear,0,2012-10-10 05:55:00
11:56 PM,63.0,33.1,33,29.97,10.0,Calm,Calm,-,N/A,,Clear,0,2012-10-10 06:56:00